Tracking 27405 objects as of 1-Jun-2023
HD Live streaming from Space Station
objects crossing your sky now

MOLNIYA 1-52

Track MOLNIYA 1-52 now!
MOLNIYA 1-52 is classified as:


NORAD ID: 13012
Int'l Code: 1981-123A
Perigee: 1,151.5 km
Apogee: 39,176.7 km
Inclination: 61.6 °
Period: 717.0 minutes
Semi major axis: 26535 km
RCS: 16.6943 m2 (large)
Launch date: December 23, 1981
Source: Commonwealth of Independent States (former USSR) (CIS)
Launch site: TYURATAM MISSILE AND SPACE COMPLEX (TTMTR)
Your satellite tracking list
Your tracking list is empty




NASA's NSSDC Master Catalog

Two Line Element Set (TLE):
1 13012U 81123A   23151.72716833 -.00000436  00000-0 -11314-1 0  9997
2 13012  61.6161 229.2337 7165066 259.5657  19.7663  2.00849657303636
Source of the keplerian elements: AFSPC